Simultaneous Nadir Overpasses (SNOs) Predictions

Prediction of SNOs between GOES-16 and AQUA Satellite Orbit:

Table of predicted SNOs for the next 14.0 days since TLE Epoch: 6/6/2025
Index Date Time (GOES-16) GOES-16 Lat,Lon AQUA Lat,Lon Distance(km) Time Diff (sec)
1 06/08/2025 09:30:13 0.01,-105.77 -0.69,-102.38 384.93 80
2 06/08/2025 21:52:13 -0.01,-106.05 -0.25,-107.06 115.69 80
3 06/11/2025 09:48:31 0.00,-107.36 -0.13,-106.79 65.02 80
4 06/11/2025 22:10:30 -0.01,-107.63 -0.86,-111.46 436.06 80
5 06/13/2025 21:47:37 0.00,-108.68 0.46,-106.55 242.53 80
6 06/14/2025 10:09:27 -0.00,-108.95 0.50,-111.18 254.88 80
7 06/16/2025 09:46:33 -0.00,-109.99 -0.79,-106.26 423.74 80
8 06/16/2025 22:08:32 0.00,-110.26 -0.12,-110.95 77.31 80
9 06/19/2025 10:04:47 -0.00,-111.58 -0.19,-110.65 104.70 80
10 06/19/2025 22:26:46 0.00,-111.84 -0.76,-115.33 396.67 80
